KUIPER-00165 (65778 NORAD) Tracking and Keplerian Element Data

This shows tracking and keplerian element data for the satellite.

Feedback or suggestion? Click here.




ElementValue
Catalog65778
NameKUIPER-00165
Epoch Orbit317
Epoch Day354.25003472
Epoch Year2025
RAAN29.9087
Inclination51.8878
Eccentricity0.0005435
Argument of Perigee42.3081
Mean Anonmoly322.1066
Mean Motion15.13298802
Decay Rate-0.00560312
L11 65778U 25217S 25354.25003472 -.00560312 00000+0 -33154-1 0 9997
L22 65778 51.8878 29.9087 0005435 42.3081 322.1066 15.13298802 3172



Live tracking and technical data element details for KUIPER-00165 (NORAD 65778). KUIPER-00165 can be tracked NOW for your location showing map with azimuth and elevation plus other details from your city location.







IsCatalogInMostPopularTable: catalog: 65778, numindb: 6
Update: records affected: 1



GetName: 65778 KUIPER-00165

Hit Count: updated at: Mon, 20 Apr 2026 09:29:55 GMT